sat.trackr.live / text

‹ back to catalog

STARLINK-33702

NORAD 63591 · 2025-076Y

PAYLOAD ACTIVE UNKNOWN

§ Identity

Operator
Country
US
Launch date
2025-04-14
Launch site
AFETR
Launch vehicle
Mass (kg)
RCS (m²)

Purposes: comms

External: N2YO · Heavens-Above · Gunter

§ Orbital elements

Epoch: 2026-05-24T23:57:52.478784Z

Period
94.27 min
Inclination
42.9950°
Eccentricity
0.0001157
Mean motion
15.27588204 rev/d
Perigee alt
482.2 km
Apogee alt
483.8 km
Semi-major
6,861.2 km
B*
6.0932e-4
RAAN
250.4947°
Arg perigee
285.7211°
Mean anomaly
74.3513°
Rev number
6,350

§ Raw data

STARLINK-337021 63591U 25076Y   26144.99852406  .00016547  00000+0  60932-3 0  99992 63591  42.9950 250.4947 0001157 285.7211  74.3513 15.27588204 63505

JSON: /api/v1/satellites/63591 · /tle

For live sub-satellite position, see the globe view (requires WebGL).

§ Visibility from observer

Set your observer location to see the next 7 days of passes ≥ 10°. The values pass through the URL so the page stays shareable.

No JS? Fill the form by hand. The geolocation button needs JavaScript.